Regional Weather Roundup
Issued by NWS

Home | Current Version | Previous Version | Graphics & Text | Print | Product List | Glossary On
Versions: 1 2 3 4 5 6 7 8 9 10 11 12 13 14 15 16 17 18 19 20 21 22 23 24 25 26 27
000
ASUS45 KTFX 271210
RWRMT
MONTANA REGIONAL WEATHER ROUNDUP
NATIONAL WEATHER SERVICE GREAT FALLS MT
600 AM MDT THU APR 27 2017

NOTE: "FAIR" INDICATES FEW OR NO CLOUDS BELOW 12000 FEET WITH NO
SIGNIFICANT WEATHER AND/OR OBSTRUCTIONS TO VISIBILITY.

MTZ001>007-043-271300-
WEST OF THE DIVIDE

CITY           SKY/WX    TMP DP  RH WIND       PRES   REMARKS
KALISPELL      LGT RAIN  38  50 100 SE10      29.67R WCI  31
MISSOULA       CLOUDY    38  35  89 N5        29.75S
BUTTE          CLOUDY    33  25  72 N7        29.68R WCI  27
MULLAN PASS    LGT SNOW  25  25 100 MISG      29.71R FOG
ANACONDA         N/A     34  28  80 NW3       29.69R
DEER LODGE       N/A     34  30  86 CALM      29.71R
EUREKA           N/A     41  36  81 E6        29.66R
HAMILTON         N/A     39  28  65 CALM      29.75R
LIBBY            N/A     37  37 100 CALM      29.69R
PLAINS           N/A     44  30  58 SW14      29.76R
$$

MTZ008-052>055-271300-
SOUTHWEST MONTANA

CITY           SKY/WX    TMP DP  RH WIND       PRES   REMARKS
BOZEMAN        MIX PCPN  37  34  89 SW5       29.67R
DILLON         PTCLDY    32  27  81 S8        29.66S WCI  25
W YELLOWSTONE  LGT SNOW  30  28  93 NW10G20   29.60R WCI  21
ENNIS          CLOUDY    32  30  93 NE15      29.71R FOG     WCI  22
THREE FORKS      N/A     41  41 100 NW6       29.69R
TWIN BRIDGES     N/A     36  29  76 S2        29.71R
$$

MTZ009-010-012-014-046-048-049-054-271300-
EAST SLOPES AND CENTRAL MONTANA

CITY           SKY/WX    TMP DP  RH WIND       PRES   REMARKS
CUT BANK       MIX PCPN  34  33  96 NW16      29.61R WCI  24
GREAT FALLS    CLOUDY    38  34  85 SW13      29.60S WCI  30
MALMSTROM AFB  CLOUDY    39  36  87 SW9       29.61R
HELENA         CLOUDY    41  30  65 W6        29.65R
AUGUSTA        MOCLDY    35  30  81 NW8       29.60R WCI  29
BOWMANS CRNR   MOCLDY    33  29  83 S8        29.60R WCI  26
CHOTEAU          N/A     34  34 100 N5        29.62S
FAIRFIELD        N/A     34  29  82 NW3       29.60R
POWER          MOCLDY    33  33  99 NW7       29.60R WCI  27
RAYNESFORD     MOCLDY    40  33  75 SW15      29.60S
ULM            CLOUDY    36  34  92 S6        29.62R WCI  31
$$

MTZ011-013-016-021-045-047-050-051-271300-
NORTH CENTRAL MONTANA

CITY           SKY/WX    TMP DP  RH WIND       PRES   REMARKS
HAVRE          CLOUDY    41  40  96 SE3       29.59S
LEWISTOWN      CLOUDY    38  37  97 CALM      29.59R
CHINOOK          N/A     39  36  87 E8        29.60S
DENTON         LGT RAIN  39  37  91 NW13      29.57R WCI  32
FORT BENTON      N/A     41  39  93 MISG      29.62R
GEYSER         MOCLDY    37  34  89 W13       29.59R WCI  29
GRASS RANGE    MOCLDY    39  37  93 W12       29.55R WCI  32
JUDITH GAP     MOCLDY    33  31  90 NW8       29.58R WCI  26
STANFORD       MOCLDY    35  33  92 NW12      29.59R WCI  27
WINIFRED       FOG       38  38  99 NW5       29.59R VSB 1/4
$$

MTZ017>020-022>027-061-062-271300-
NORTHEAST MONTANA

CITY           SKY/WX    TMP DP  RH WIND       PRES   REMARKS
GLASGOW        PTCLDY    31  22  69 E16       29.66S WCI  20
JORDAN           N/A     33  29  85 E6        29.62R WCI  28
SIDNEY         CLEAR     26  22  84 N5        29.75R
WOLF POINT     PTCLDY    28  23  81 NE10      29.72R WCI  19
PLENTYWOOD       N/A     27  21  80 NE5       29.76R
POPLAR           N/A     27  23  86 NE7       29.73S WCI  19
SCOBEY           N/A     27  19  71 E6        29.72R WCI  21
$$

MTZ028>42-056>058-271300-
SOUTHCENTRAL AND SOUTHEAST MONTANA

CITY           SKY/WX    TMP DP  RH WIND       PRES   REMARKS
BAKER          CLEAR     26  23  88 E7        29.68S WCI  18
BILLINGS       CLOUDY    41  37  86 SW6       29.56F
LIVINGSTON     LGT SNOW  34  33  96 SW14      29.62R FOG     WCI  25
MILES CITY     PTCLDY    33  29  85 NE8       29.62F WCI  26
BIG TIMBER     CLOUDY    37  36  93 W16G22    29.61R WCI  28
EKALAKA          N/A     27  22  81 SE10      29.64R WCI  17
LAUREL           N/A     39  31  73 CALM      29.60R
ROUNDUP          N/A     39  34  82 W2        29.54R
$$

REGIONAL REPORTS...DAKOTAS

CITY           SKY/WX    TMP DP  RH WIND       PRES   REMARKS
WILLISTON      CLEAR     27  22  81 N5        29.76S
MINOT          CLEAR     22  18  85 NW6       29.76S WCI  14
DICKINSON      CLEAR     20  16  84 SE3       29.70F
BEACH            N/A     23  23 100 SE9       29.73S WCI  13
TIOGA            N/A     19  19 100 CALM      29.77S
WATFORD CITY     N/A     21  21 100 CALM      29.75S
BISMARCK       CLOUDY    31  25  78 W5        29.75R
GRAND FORKS    PTCLDY    23  20  88 N8        29.73R WCI  14
FARGO          CLOUDY    26  22  84 N18       29.69R WCI  13
BUFFALO SD       N/A     25  23  92 E8        29.60S WCI  16
RAPID CITY     CLOUDY    24  22  91 CALM      29.64S
$$

REGIONAL REPORTS...WYOMING/IDAHO/WASHINGTON

CITY           SKY/WX    TMP DP  RH WIND       PRES   REMARKS
GILLETTE       CLOUDY    32  31  96 SE8       29.55S WCI  25
SHERIDAN       FOG       32  31  96 CALM      29.57R VSB 1/2
BUFFALO WY     CLOUDY    33  27  78 CALM      29.55R
CODY           LGT RAIN  33  32  96 NW8       29.57F WCI  26
YELLOWSTONE LA   N/A     27  25  92 NW3       29.58S
IDAHO FALLS    LGT RAIN  36  35  96 S9        29.69R WCI  29
SALMON         CLOUDY    36  28  75 CALM      29.75R
BOISE          PTCLDY    39  34  82 NW12      29.89R WCI  32
SPOKANE        MOCLDY    36  30  79 SW15      29.79R WCI  27
$$

REGIONAL REPORTS...ALBERTA

CITY           SKY/WX    TMP DP  RH WIND       PRES   REMARKS
EDMONTON       CLOUDY    34  32  93 E2        29.74R
CALGARY        CLOUDY    34  32  93 S6        29.66R FOG     WCI  29
LETHBRIDGE     FLURRIES  34  34 100 W3        29.66R
MEDICINE HAT   CLOUDY    36  34  93 N8        29.66R WCI  29
MILK RIVER       N/A     36  36 100 N7          N/A  WCI  30
ONEFOUR          N/A     34  34 100 NE8         N/A  WCI  27
$$

REGIONAL REPORTS...SASKATCHEWAN

CITY           SKY/WX    TMP DP  RH WIND       PRES   REMARKS
SWIFT CURRENT  CLOUDY    30  23  74 SE14      29.66R WCI  20
REGINA         PTCLDY    27  19  74 SE12      29.80R WCI  16
SASKATOON      FLURRIES  34  21  60 SE9       29.83R WCI  26
CYPRESS HILLS    N/A     32  30  93 SE5         N/A
VAL MARIE        N/A     32  23  69 SE15        N/A  WCI  22
ASSINIBOIA       N/A     34  32  93 E8          N/A  WCI  27
$$




USA.gov is the U.S. government's official web portal to all federal, state and local government web resources and services.